Flag for Canada Weather past 2 weeks in Vancouver, British Columbia, Canada

Now
55 °F

Partly cloudy.


Feels Like: 53 °F
Forecast: 55 / 63 °F
Wind: 9 mph from East

Location: Vancouver International Air-Port

Current Time: Jun 3, 2015 at 2:36:42 AM

Latest Report: Jun 3, 2015 at 2:00 AM


Visibility: 15 mi

Pressure: 30.03 "Hg

Humidity: 88%

Dew point: 52 °F

Location of VancouverLocation

Historic Weather in Vancouver — Graph

°F

Vancouver temperature yesterday

Maximum temperature yesterday: 63 °F (at 2:00 PM)
Minimum temperature yesterday: 54 °F (at 6:00 AM)
Average temperature yesterday: 58 °F

Past Weeks' High & Low Weather Summary

 TemperatureHumidityPressure
High72 °F (May 28, 5:00 PM)94% (May 19, 3:00 AM)30.16 "Hg (May 19, 3:00 AM)
Low52 °F (May 20, 4:00 AM)46% (May 30, 6:00 PM)29.76 "Hg (Jun 1, 4:00 AM)
Average61 °F77%29.97 "Hg
* Reported May 19 1:00 AM — Jun 3 1:00 AM, Vancouver, Weather by CustomWeather, © 2015

Note: Actual official high and low records may vary slightly from our data, if they occured in-between our weather recording intervals... More about our weather records

Advertising

Vancouver weather history for previous 24 hours

 ConditionsComfort  
Time TempWeatherWind HumidityBarometerVisibility
1:00 AM
Wed, Jun 3
57 °FPartly cloudy.7 mph82%30.03 "Hg15 mi
12:00 AM57 °FPartly cloudy.8 mph82%30.03 "Hg15 mi
11:00 PM
Tue, Jun 2
57 °FMostly cloudy.8 mph82%30.03 "Hg15 mi
10:00 PM57 °FMostly cloudy.8 mph82%30.02 "Hg15 mi
9:00 PM59 °FMostly cloudy.8 mph77%30.01 "Hg15 mi
8:00 PM59 °FLight rain. Mostly cloudy.8 mph77%30.01 "Hg15 mi
7:00 PM61 °FMostly cloudy.9 mph68%30.01 "Hg15 mi
6:00 PM61 °FScattered showers. Cloudy.7 mph77%30.00 "Hg15 mi
5:00 PM61 °FMostly cloudy.8 mph72%29.99 "Hg15 mi
4:00 PM61 °FCloudy.9 mph72%30.00 "Hg15 mi
3:00 PM63 °FCloudy.12 mph73%29.99 "Hg15 mi
2:00 PM63 °FCloudy.10 mph73%29.98 "Hg15 mi
1:00 PM61 °FCloudy.12 mph77%29.98 "Hg15 mi
12:00 PM61 °FCloudy.9 mph77%29.98 "Hg15 mi
11:00 AM57 °FCloudy.10 mph82%29.97 "Hg15 mi
10:00 AM57 °FCloudy.14 mph88%29.96 "Hg15 mi
9:00 AM55 °FMostly cloudy.14 mph94%29.96 "Hg15 mi
8:00 AM55 °FMore clouds than sun.14 mph94%29.95 "Hg15 mi
7:48 AM55 °FMore clouds than sun.12 mph94%29.94 "Hg15 mi
7:00 AM55 °FLight rain. More clouds than sun.12 mph94%29.93 "Hg15 mi
6:00 AM54 °FLight rain. Mostly cloudy.8 mph94%29.93 "Hg5 mi
5:00 AM55 °FLight rain. Mostly cloudy.10 mph94%29.92 "Hg4 mi
4:51 AM55 °FLight rain. Mostly cloudy.10 mph94%29.92 "Hg4 mi
4:00 AM55 °FLight rain. Mostly cloudy.12 mph94%29.91 "Hg8 mi
3:00 AM55 °FRain. Overcast.12 mph94%29.91 "Hg8 mi
2:00 AM55 °FLight rain. Mostly cloudy.12 mph94%29.90 "Hg10 mi
Weather by CustomWeather, © 2015

See weather overviewHow to use our weather pages